Total_Precipitation_Accumulation
2.66 2.67 2.71 2.75 2.57 2.67 2.85 3.11 2.98 3.05 3.13 2.91 2.64 2.56 2.74 2.83 2.88 2.88 2.95 3.12 3.01 3.09 3.69 3.91 3.55 3.11 2.92 2.49 2.24 1.95 1.74 1.63 1.47 1.21 1.05 1.04 1.10 1.18 1.12 0.98 0.93 0.90 0.79
2.98 2.93 2.74 2.79 2.65 2.61 2.73 2.99 3.03 3.42 3.45 3.41 2.95 2.75 2.81 2.83 2.84 2.95 2.91 3.21 3.13 2.97 3.37 3.74 3.83 3.63 3.39 3.09 2.80 2.46 2.18 2.03 1.82 1.48 1.28 1.16 1.17 1.23 1.19 1.20 1.13 1.08 1.01
3.04 3.00 2.93 2.76 2.72 2.77 2.99 3.07 3.10 3.39 3.42 3.42 3.31 3.05 2.89 2.64 2.52 2.65 2.69 2.85 2.84 2.83 3.07 3.40 3.67 3.76 3.77 3.60 3.43 3.19 2.78 2.43 2.14 1.79 1.50 1.28 1.16 1.21 1.23 1.26 1.28 1.26 1.23
2.96 3.10 2.94 2.68 2.76 2.73 2.93 3.27 3.40 3.58 3.77 3.77 3.53 3.21 2.98 2.86 2.64 2.60 2.48 2.46 2.73 2.42 2.72 3.13 3.37 3.55 4.00 4.26 4.33 4.30 3.79 3.10 2.51 2.19 1.90 1.60 1.38 1.30 1.26 1.29 1.33 1.29 1.21
2.81 3.03 2.91 2.81 2.83 3.00 3.05 2.84 3.46 3.80 3.96 3.93 3.27 3.13 2.79 2.68 2.53 2.36 2.42 2.30 2.48 2.55 2.64 2.66 2.81 3.04 3.85 4.68 5.05 5.13 4.90 4.04 3.22 2.78 2.50 2.16 1.84 1.58 1.37 1.36 1.38 1.27 1.12
2.71 3.02 2.76 2.77 2.90 3.20 3.30 3.36 3.80 3.88 3.75 3.95 3.28 2.91 2.52 2.18 2.12 2.13 2.00 2.05 2.11 2.08 2.31 2.73 3.07 2.81 3.33 3.98 4.39 4.74 5.09 4.95 4.25 3.44 3.05 2.74 2.48 2.13 1.77 1.59 1.51 1.44 1.28
2.84 3.29 2.94 3.22 3.12 3.17 3.21 3.38 3.66 3.67 3.46 3.78 3.79 3.10 2.29 1.82 1.80 1.70 1.70 1.82 1.78 1.79 2.07 2.62 3.00 3.07 2.89 2.77 3.00 3.51 4.24 4.77 4.71 4.06 3.62 3.36 3.22 2.81 2.37 2.10 1.85 1.68 1.55
2.95 3.03 3.26 3.17 3.20 3.30 3.09 3.18 3.51 3.35 2.97 3.38 3.73 3.70 2.87 2.32 1.85 1.35 1.50 1.58 1.66 1.84 1.83 1.90 2.37 2.92 2.88 2.93 2.62 2.47 3.13 3.96 4.50 4.55 4.21 3.88 3.65 3.30 2.89 2.57 2.21 1.91 1.65
2.98 3.05 3.00 2.96 3.09 3.03 2.99 3.00 3.19 3.29 3.11 3.11 3.50 3.87 3.25 2.56 2.03 1.54 1.45 1.40 1.68 2.02 1.99 1.96 2.14 2.53 2.72 2.98 3.08 2.90 2.65 2.91 3.80 4.88 5.03 4.42 3.67 3.12 2.86 2.81 2.70 2.39 2.15
3.25 3.02 2.84 2.79 2.80 2.71 2.80 2.58 2.87 3.09 3.22 2.93 3.06 3.11 2.98 2.88 2.72 2.04 1.61 1.48 1.73 1.96 2.07 2.04 2.10 2.32 2.51 2.85 3.12 2.93 2.42 2.22 2.68 3.85 4.65 4.63 4.05 3.27 2.88 3.03 3.37 3.23 2.82
3.28 2.91 2.86 2.84 2.80 2.68 2.56 2.50 2.72 2.67 2.78 2.79 2.83 2.86 2.92 2.90 2.69 2.43 2.04 1.87 1.79 1.56 1.57 1.73 1.97 2.21 2.34 2.58 2.93 2.79 2.54 2.44 2.41 2.61 3.08 3.50 3.74 3.53 3.22 3.27 3.73 3.98 3.79
2.86 2.64 2.58 2.62 2.54 2.54 2.52 2.49 2.52 2.49 2.57 2.67 2.68 2.67 2.80 2.81 2.75 2.76 2.44 2.19 1.97 1.67 1.58 1.64 1.81 1.98 2.08 2.19 2.24 2.42 2.36 2.34 2.22 2.11 2.15 2.27 2.57 2.96 3.23 3.54 4.01 4.43 4.62
2.12 2.12 2.21 2.28 2.22 2.26 2.28 2.43 2.36 2.28 2.39 2.55 2.53 2.52 2.60 2.62 2.66 2.77 2.68 2.23 2.05 1.87 1.90 1.75 1.64 1.83 1.88 2.09 2.27 2.24 1.98 1.97 1.83 1.75 1.77 1.82 2.01 2.27 2.51 2.80 3.34 3.95 4.38
1.84 1.92 2.03 2.02 1.98 2.00 1.96 2.24 2.12 2.07 2.18 2.25 2.14 2.46 2.47 2.23 2.45 2.63 2.69 2.67 2.45 2.28 2.30 2.02 1.78 1.77 1.89 2.04 2.19 2.13 1.83 1.72 1.51 1.40 1.41 1.44 1.49 1.65 1.90 2.18 2.47 2.80 3.16
1.83 1.91 1.90 1.95 1.95 1.99 2.05 2.17 2.03 1.99 2.19 2.15 2.10 2.32 2.28 2.13 2.23 2.35 2.58 2.78 2.92 2.71 2.53 2.33 2.01 1.82 1.83 1.91 2.16 1.98 1.98 1.84 1.52 1.41 1.35 1.29 1.25 1.31 1.47 1.68 1.87 2.07 2.34
1.90 1.94 1.94 2.02 1.95 1.92 1.95 2.00 1.79 1.81 2.05 2.11 2.17 2.37 2.32 2.22 2.29 2.36 2.52 2.82 3.11 3.10 2.69 2.21 2.03 1.93 2.01 1.96 2.19 1.95 1.88 1.92 1.65 1.42 1.31 1.30 1.26 1.26 1.33 1.49 1.65 1.81 1.96
1.92 1.88 1.85 1.85 1.86 1.83 1.88 1.91 1.70 1.84 2.01 2.06 2.08 2.23 2.28 2.41 2.46 2.47 2.59 2.73 3.00 3.23 2.91 2.36 2.25 2.23 2.35 2.32 2.23 2.00 1.78 1.68 1.51 1.45 1.30 1.23 1.22 1.25 1.30 1.36 1.50 1.64 1.74
1.90 1.93 1.92 1.86 1.76 1.79 1.98 2.04 1.91 1.99 2.10 2.08 2.11 2.25 2.15 2.33 2.50 2.45 2.56 2.58 2.70 3.04 2.91 2.63 2.59 2.53 2.50 2.40 2.40 2.23 1.91 1.73 1.66 1.62 1.41 1.29 1.25 1.22 1.24 1.27 1.37 1.55 1.68
1.96 2.04 2.06 2.06 2.04 2.07 2.09 2.16 2.24 2.20 2.13 2.06 2.11 2.11 2.08 2.27 2.27 2.37 2.49 2.48 2.48 2.65 2.83 2.76 2.71 2.78 2.73 2.62 2.57 2.39 2.20 2.13 1.81 1.72 1.63 1.53 1.51 1.48 1.44 1.42 1.42 1.49 1.61
2.01 2.12 2.13 2.25 2.42 2.47 2.46 2.42 2.32 2.25 2.20 2.16 2.12 2.07 2.02 2.04 2.07 2.17 2.28 2.39 2.48 2.62 2.77 2.80 2.84 2.96 2.92 2.97 2.97 2.75 2.60 2.51 2.18 1.80 1.80 1.69 1.64 1.53 1.44 1.37 1.34 1.39 1.51
1.86 2.17 2.32 2.41 2.68 2.81 2.62 2.63 2.56 2.44 2.44 2.26 2.13 2.03 1.89 1.91 1.97 2.00 1.95 2.08 2.25 2.41 2.45 2.54 2.66 2.88 2.94 3.05 3.03 2.88 2.74 2.74 2.56 2.11 1.95 1.82 1.75 1.63 1.60 1.56 1.46 1.39 1.40
1.75 1.94 2.08 2.20 2.25 2.09 2.24 2.27 2.25 2.30 2.33 2.22 2.14 2.07 1.92 1.83 1.80 1.75 1.65 1.68 1.79 1.93 2.13 2.37 2.46 2.67 2.88 3.04 3.25 3.29 3.12 2.93 2.77 2.48 2.38 2.25 1.99 1.89 1.71 1.55 1.53 1.34 1.21
1.73 1.81 1.85 1.90 1.87 1.92 1.95 1.74 1.68 1.67 1.85 1.97 2.03 2.02 1.78 1.63 1.72 1.63 1.65 1.62 1.62 1.75 1.87 2.12 2.31 2.41 2.67 2.88 3.14 3.27 3.27 3.16 2.99 2.82 2.67 2.56 2.22 1.99 1.77 1.64 1.56 1.28 1.12
1.81 1.80 1.84 1.88 1.94 1.92 1.82 1.59 1.57 1.53 1.67 1.78 1.85 1.89 1.86 1.79 1.78 1.82 1.73 1.62 1.53 1.60 1.70 1.67 1.73 1.92 2.21 2.60 2.78 2.83 3.01 3.06 2.94 2.76 2.68 2.65 2.36 2.12 1.89 1.78 1.70 1.38 1.19
2.05 2.00 2.08 2.10 2.06 1.96 1.83 1.63 1.63 1.58 1.69 1.72 1.72 1.73 1.74 1.70 1.79 1.67 1.58 1.56 1.55 1.58 1.56 1.53 1.48 1.53 1.69 1.93 2.28 2.45 2.57 2.54 2.44 2.21 2.09 2.16 2.12 2.09 2.02 1.89 1.71 1.57 1.34
2.50 2.52 2.38 2.23 2.10 1.98 1.94 1.65 1.57 1.50 1.59 1.67 1.74 1.69 1.62 1.50 1.50 1.45 1.43 1.54 1.53 1.54 1.59 1.52 1.41 1.34 1.30 1.46 1.80 2.00 2.11 2.17 2.07 2.01 1.74 1.72 1.75 1.81 1.91 1.75 1.61 1.55 1.47